CZ-6A DEB, 55554

Orbit data source: Space-Track

CZ-6A DEB, 55554 is space debris in SSO originally from a launch on Fri, 11 Nov 2022 UTC launched from the Taiyaun Space Center, China (TSC). Debris objects in space refer to the collection of defunct objects orbiting the Earth. Examples of debris include non-operational satellites, rocket bodies, and fragments generated from explosions, collisions, or faulty payload assembly.

Loading next visibility...
Identifier
55554, 2022-151ZC
Orbit
SSO
Country
Flag of CNCN / PRC
Related business
Manufacturer
SAST
Mission
Spacecraft
Bus & Motor
Unknown
Mass
Unknown
Launch date (UTC)
2022-11-11 (4 years ago)
Launch vehicle
Unknown
Launch site
Taiyaun Space Center, China (TSC)
Object type
Payload
Rocket body
Debris
Shape & HBR
Unknown shape, 0.1 m
Radar Cross Section
Small (<0.1 m²)

Expand to show TLE details & history
Last TLE update: 3 days ago

TLE from 3 days ago
0 CZ-6A DEB
1 55554U 22151ZC  26170.47747030  .00001978  00000-0  10133-2 0  9998
2 55554  98.8168 166.3280 0055610 321.8712  37.8533 14.15840040185182
Epoch: 2026-06-19T11:27Z
TLE epoch observation values (Epoch: 2026-06-19T11:27:33.433Z)
Latitude
-0.00005°
Longitude
86.73282°
Altitude
810.748 km
Speed
7.464 km/s
True Right ascension
11h 05m 18s
True Declination
0° 00' 00"
Sunlit
Object was in daylight at epoch
Visualization orbit readout
Latitude
Unknown
Longitude
Unknown
Altitude
Unknown
Speed
Unknown
Apparent Right ascension
Unknown
Apparent Declination
Unknown
Sunlit
N/A
Visualization observer readout
Local Sidereal Time
23:18:48
Azimuth
Unknown
Elevation
Unknown
Doppler factor
Unknown
Orbital elements
Apogee altitude
876.746 km
Perigee altitude
796.504 km
Semi-major axis
7,214.762 km
Eccentricity
0.00556
Inclination
98.8168°
RAAN
166.328°
Arg. of periapsis
321.8712°
True anomaly
38.24649°
Mean anomaly
37.8533°
Eccentric anomaly
38.04968°
Mean motion
3.54169 °/min
Orbital period
101.65 mins
BSTAR
0.0010133
Loading maneuver chart data...
Computing Atmospheric mass density...
Loading historical data...
Loading historical data...
Loading historical data...
Loading historical data...
Loading historical data...
Loading historical data...
Loading historical data...

Documentation

Showing up to 5 results
|